Date_and_time,latitude,longitude,wind_speed,RelWindDirFrom,WindDirFrom,air_pressure,air_temperature,relative_humidity,Temp,platform_speed_wrt_ground,air_pressure_at_mean_sea_level,platform_orientation
2018-06-20 00:00,50.9117383333333,-96.982525,7.4,9.1,161,988.25,24.2,47,20.54,0.0,1013.86,350.2
2018-06-20 00:10,50.9117416666667,-96.9825233333333,7.9,9.3,158,988.23,24.0,45,20.53,0.0,1013.84,350.2
2018-06-20 00:20,50.911745,-96.9825116666667,6.8,8.3,157,988.20,23.8,49,20.53,0.0,1013.80,350.2
2018-06-20 00:30,50.9117483333333,-96.9825133333333,6.0,7.5,156,988.16,23.6,52,20.52,0.0,1013.76,350.2
2018-06-20 00:40,50.9117316666667,-96.9825283333333,5.9,6.6,157,988.16,23.4,53,20.52,0.0,1013.76,350.2
2018-06-20 00:50,50.91174,-96.9825316666667,5.5,6.9,159,988.12,23.5,51,20.53,0.0,1013.72,350.2
2018-06-20 01:00,50.91174,-96.9825183333333,4.4,6.0,161,988.02,23.5,53,20.53,0.0,1013.62,360.0
2018-06-20 01:10,50.9117383333333,-96.9825233333333,4.2,5.6,174,987.95,23.5,55,20.53,0.0,1013.56,360.0
2018-06-20 01:20,50.9117233333333,-96.982525,3.8,5.7,189,987.96,23.4,55,20.54,0.0,1013.57,360.0
2018-06-20 01:30,50.9117283333333,-96.9825233333333,5.3,7.2,182,987.93,23.8,48,20.53,0.0,1013.52,360.0
2018-06-20 01:40,50.91173,-96.9825266666667,6.8,8.2,178,987.83,24.0,44,20.52,0.0,1013.40,360.0
2018-06-20 01:50,50.9117416666667,-96.9825333333333,5.5,7.9,184,987.75,24.0,43,20.52,0.0,1013.33,360.0
2018-06-20 02:00,50.9117366666667,-96.9825283333333,3.6,5.3,197,987.74,24.1,44,20.51,0.0,1013.32,360.0
2018-06-20 02:10,50.9117233333333,-96.982515,3.3,5.3,213,987.73,24.8,33,20.50,0.0,1013.29,360.0
2018-06-20 02:20,50.9117433333333,-96.9825233333333,3.1,5.6,233,987.66,24.8,34,20.48,0.0,1013.22,360.0
2018-06-20 02:30,50.9117233333333,-96.9825333333333,4.5,6.3,238,987.60,24.5,35,20.46,0.0,1013.19,360.0
2018-06-20 02:40,50.9117333333333,-96.9825366666667,5.2,7.1,248,987.75,23.9,37,20.44,0.0,1013.36,360.0
2018-06-20 02:50,50.9117166666667,-96.982545,5.1,7.3,250,987.79,23.4,38,20.42,0.0,1013.43,360.0
2018-06-20 03:00,50.911725,-96.9825333333333,3.7,5.8,251,987.82,22.8,40,20.39,0.0,1013.47,360.0
2018-06-20 03:10,50.9117283333333,-96.9825366666667,3.3,5.8,241,987.89,22.3,42,20.36,0.0,1013.58,360.0
2018-06-20 03:20,50.9117283333333,-96.9825366666667,5.4,7.1,237,987.97,22.0,42,20.32,0.0,1013.65,360.0
2018-06-20 03:30,50.91173,-96.98254,5.1,6.6,238,988.01,21.8,42,20.29,0.0,1013.69,360.0
2018-06-20 03:40,50.91173,-96.9825366666667,4.8,6.6,239,988.04,21.6,43,20.26,0.0,1013.73,360.0
2018-06-20 03:50,50.9117433333333,-96.9825383333333,4.5,6.4,250,988.07,21.4,43,20.23,0.0,1013.77,360.0
2018-06-20 04:00,50.9117333333333,-96.9825366666667,5.3,7.8,257,988.12,21.5,43,20.20,0.0,1013.79,189.8
2018-06-20 04:10,50.911735,-96.9825416666667,5.1,6.9,260,988.19,21.4,44,20.17,0.0,1013.86,189.8
2018-06-20 04:20,50.9117366666667,-96.9825266666667,5.0,6.3,262,988.17,21.1,45,20.15,0.0,1013.87,189.8
2018-06-20 04:30,50.9116966666667,-96.9825283333333,5.0,6.9,264,988.20,21.0,45,20.12,0.0,1013.93,189.8
2018-06-20 04:40,50.9117416666667,-96.98249,5.1,6.2,261,988.20,21.0,45,20.10,0.0,1013.96,189.8
2018-06-20 04:50,50.9117283333333,-96.9825416666667,5.5,7.3,255,988.21,20.6,46,20.07,0.0,1014.01,189.8
2018-06-20 05:00,50.91174,-96.9825433333333,5.2,7.7,253,988.25,20.1,48,20.05,0.0,1014.10,293.9
2018-06-20 05:10,50.9117266666667,-96.98252,6.0,7.9,260,988.25,19.8,48,20.03,0.0,1014.12,293.9
2018-06-20 05:20,50.9117316666667,-96.98252,6.1,8.3,264,988.28,19.8,48,20.01,0.0,1014.16,293.9
2018-06-20 05:30,50.9117283333333,-96.9825233333333,6.6,9.1,261,988.32,19.9,48,19.99,0.0,1014.21,293.9
2018-06-20 05:40,50.9117216666667,-96.982535,7.3,9.8,258,988.27,19.8,48,19.97,0.0,1014.17,293.9
2018-06-20 05:50,50.9117233333333,-96.9825383333333,7.5,10.6,260,988.33,19.7,49,19.95,0.0,1014.23,293.9
2018-06-20 06:00,50.911725,-96.9825366666667,6.8,9.3,263,988.38,19.6,50,19.93,0.0,1014.29,0.0
2018-06-20 06:10,50.9117533333333,-96.9825166666667,6.3,8.6,265,988.38,19.4,51,19.91,0.0,1014.32,0.0
2018-06-20 06:20,50.911705,-96.9824866666667,6.5,9.7,266,988.40,19.2,52,19.89,0.0,1014.34,0.0
2018-06-20 06:30,50.91172,-96.9825216666667,6.2,8.8,268,988.37,19.1,52,19.88,0.0,1014.32,0.0
2018-06-20 06:40,50.911725,-96.9825266666667,6.5,9.4,264,988.32,18.9,53,19.86,0.0,1014.30,0.0
2018-06-20 06:50,50.9117233333333,-96.9825266666667,6.0,8.4,269,988.22,18.6,54,19.84,0.0,1014.23,0.0
2018-06-20 07:00,50.9117233333333,-96.9825283333333,5.4,6.6,272,988.26,18.3,55,19.82,0.0,1014.30,132.1
2018-06-20 07:10,50.9117233333333,-96.9825266666667,6.9,9.4,277,988.13,18.4,54,19.80,0.0,1014.16,132.1
2018-06-20 07:20,50.9117233333333,-96.9825266666667,7.6,9.0,279,987.93,18.6,53,19.78,0.0,1013.94,132.1
2018-06-20 07:30,50.9117233333333,-96.982525,7.1,8.5,279,987.80,18.5,53,19.75,0.0,1013.81,132.1
2018-06-20 07:40,50.911755,-96.9825383333333,6.9,8.1,281,987.71,18.3,54,19.73,0.0,1013.73,132.1
2018-06-20 07:50,50.9117066666667,-96.98253,7.0,8.0,281,987.71,18.0,56,19.71,0.0,1013.76,132.1
2018-06-20 08:00,50.9117233333333,-96.9825316666667,7.4,8.3,284,987.74,17.7,57,19.69,0.0,1013.81,149.8
2018-06-20 08:10,50.9117416666667,-96.982545,7.5,8.2,284,987.68,17.5,58,19.66,0.0,1013.76,149.8
2018-06-20 08:20,50.911735,-96.9824916666667,7.4,8.1,283,987.58,17.2,59,19.63,0.0,1013.68,149.8
2018-06-20 08:30,50.911745,-96.982525,7.6,8.5,283,987.54,17.1,60,19.59,0.0,1013.65,149.8
2018-06-20 08:40,50.911745,-96.9825366666667,8.1,9.0,286,987.37,17.1,59,19.56,0.0,1013.50,149.8
2018-06-20 08:50,50.91174,-96.98253,8.3,9.2,285,987.22,16.9,60,19.52,0.0,1013.36,149.8
2018-06-20 09:00,50.9117266666667,-96.98254,7.6,8.3,282,987.17,16.6,61,19.49,0.0,1013.31,360.0
2018-06-20 09:10,50.9117333333333,-96.9825333333333,7.5,9.1,275,987.29,16.7,60,19.46,0.0,1013.43,360.0
2018-06-20 09:20,50.9117283333333,-96.9825233333333,6.5,8.5,272,987.40,16.6,61,19.44,0.0,1013.55,360.0
2018-06-20 09:30,50.9117316666667,-96.98252,6.5,8.5,269,987.43,16.4,62,19.42,0.0,1013.60,360.0
2018-06-20 09:40,50.9117316666667,-96.9825283333333,7.3,8.8,275,987.40,16.3,63,19.40,0.0,1013.58,360.0
2018-06-20 09:50,50.91173,-96.9825283333333,8.0,9.7,277,987.47,16.3,63,19.37,0.0,1013.67,360.0
2018-06-20 10:00,50.91173,-96.98253,7.8,9.4,276,987.53,16.3,63,19.34,0.0,1013.74,37.5
2018-06-20 10:10,50.91173,-96.98253,7.4,9.0,276,987.57,16.3,64,19.31,0.0,1013.80,37.5
2018-06-20 10:20,50.91173,-96.9825283333333,6.5,9.2,268,987.64,16.1,65,19.29,0.0,1013.89,37.5
2018-06-20 10:30,50.91173,-96.9825283333333,7.2,9.1,261,987.73,16.0,65,19.27,0.0,1013.98,37.5
2018-06-20 10:40,50.9117183333333,-96.9825216666667,7.6,10.1,258,987.69,16.1,65,19.25,0.0,1013.94,37.5
2018-06-20 10:50,50.9117233333333,-96.982525,7.1,10.0,258,987.75,16.2,66,19.22,0.0,1014.02,37.5
2018-06-20 11:00,50.91176,-96.9825683333333,7.1,9.6,261,987.72,16.0,68,19.20,0.0,1013.99,319.4
2018-06-20 11:10,50.911725,-96.9825166666667,7.5,9.4,263,987.76,16.0,68,19.19,0.0,1014.03,319.4
2018-06-20 11:20,50.9117266666667,-96.9825216666667,6.9,8.9,262,987.82,16.3,67,19.18,0.0,1014.09,319.4
2018-06-20 11:30,50.9117283333333,-96.982525,7.0,10.2,269,987.81,16.9,65,19.16,0.0,1014.05,319.4
2018-06-20 11:40,50.9117333333333,-96.9825266666667,7.4,9.8,272,987.85,17.7,63,19.17,0.0,1014.06,319.4
2018-06-20 11:50,50.91173,-96.9825266666667,8.1,10.2,279,987.86,18.3,62,19.18,0.0,1014.05,319.4
2018-06-20 12:00,50.9117266666667,-96.982525,8.0,10.5,273,987.85,18.8,60,19.20,0.0,1014.01,90.0
2018-06-20 12:10,50.9117266666667,-96.9825283333333,7.5,10.1,271,987.96,19.3,59,19.22,0.0,1014.12,90.0
2018-06-20 12:20,50.9117266666667,-96.9825283333333,6.1,8.7,266,988.09,19.4,60,19.24,0.0,1014.24,90.0
2018-06-20 12:30,50.9117266666667,-96.9825383333333,5.5,8.5,269,988.02,19.0,63,19.25,0.0,1014.19,90.0
2018-06-20 12:40,50.9117316666667,-96.9825333333333,5.7,8.3,270,987.98,19.2,63,19.27,0.0,1014.14,90.0
2018-06-20 12:50,50.9117366666667,-96.9825283333333,6.2,8.3,278,987.96,19.7,61,19.28,0.0,1014.10,90.0
2018-06-20 13:00,50.9117333333333,-96.9825266666667,6.8,8.5,282,987.92,20.3,59,19.29,0.0,1014.02,0.0
2018-06-20 13:10,50.9117316666667,-96.982525,7.1,9.6,294,987.84,21.0,57,19.31,0.0,1013.90,0.0
2018-06-20 13:20,50.9117316666667,-96.982525,7.5,9.6,291,987.77,21.2,56,19.34,0.0,1013.79,0.0
2018-06-20 13:30,50.91173,-96.9825233333333,6.0,7.4,277,987.83,21.2,57,19.36,0.0,1013.82,0.0
2018-06-20 13:40,50.911725,-96.982515,5.3,7.3,274,987.84,21.3,57,19.38,0.0,1013.80,0.0
2018-06-20 13:50,50.91173,-96.9825133333333,5.8,8.5,279,987.77,22.1,55,19.39,0.0,1013.67,0.0
2018-06-20 14:00,50.9117133333333,-96.98254,6.5,9.6,284,987.66,23.6,48,19.42,0.0,1013.46,158.4
2018-06-20 14:10,50.9117183333333,-96.9825283333333,6.7,10.3,295,987.63,24.5,44,19.48,0.0,1013.39,158.4
2018-06-20 14:20,50.91172,-96.982525,7.8,10.3,293,987.58,25.0,41,19.55,0.0,1013.33,158.4
2018-06-20 14:30,50.91172,-96.9825266666667,7.3,10.1,294,987.50,25.1,41,19.65,0.0,1013.24,158.4
2018-06-20 14:40,50.911715,-96.9825283333333,5.6,9.7,314,987.53,25.6,40,19.74,0.0,1013.22,158.4
2018-06-20 14:50,50.9117183333333,-96.9825283333333,6.3,10.1,319,987.52,26.0,41,19.84,0.0,1013.17,158.4
2018-06-20 15:00,50.9117216666667,-96.982525,5.9,10.3,335,987.46,26.4,42,19.91,0.0,1013.06,360.0
2018-06-20 15:10,50.9117233333333,-96.9825283333333,6.5,10.1,339,987.39,26.6,40,19.97,0.0,1012.97,360.0
2018-06-20 15:20,50.9117216666667,-96.9825266666667,5.5,9.9,317,987.43,27.5,33,20.04,0.0,1012.98,360.0
2018-06-20 15:30,50.9117583333333,-96.982505,3.1,7.9,347,987.41,27.8,37,20.09,0.0,1012.93,360.0
2018-06-20 15:40,50.9117383333333,-96.9825083333333,3.9,6.3,101,987.35,25.2,52,20.12,0.0,1012.96,360.0
2018-06-20 15:50,50.9117383333333,-96.9825166666667,5.4,7.6,123,987.29,22.7,61,20.10,0.0,1012.94,360.0
2018-06-20 16:00,50.9117366666667,-96.9825183333333,3.1,6.4,101,987.25,23.7,52,20.07,0.0,1012.81,9.8
2018-06-20 16:10,50.9117183333333,-96.982525,7.1,9.3,108,987.20,23.4,61,20.05,0.0,1012.76,9.8
2018-06-20 16:20,50.911725,-96.9825216666667,6.8,8.2,109,987.12,22.8,62,20.03,0.0,1012.69,9.8
2018-06-20 16:30,50.911715,-96.9824833333333,7.3,8.7,93,987.02,22.8,64,20.01,0.0,1012.57,9.8
2018-06-20 16:40,50.9117316666667,-96.98252,5.2,6.5,109,987.01,22.9,69,20.01,0.0,1012.54,9.8
2018-06-20 16:50,50.9117233333333,-96.98252,5.0,7.1,92,987.00,23.3,65,20.02,0.0,1012.49,9.8
2018-06-20 17:00,50.911725,-96.9825216666667,6.4,7.5,83,986.93,24.6,51,20.03,0.0,1012.35,360.0
2018-06-20 17:10,50.9117283333333,-96.9825233333333,6.0,6.8,95,986.87,25.0,51,20.06,0.0,1012.24,360.0
2018-06-20 17:20,50.9117283333333,-96.982525,4.4,6.0,121,986.86,24.2,57,20.09,0.0,1012.25,360.0
2018-06-20 17:30,50.9117283333333,-96.9825266666667,3.2,4.9,138,986.80,23.7,63,20.12,0.0,1012.32,360.0
2018-06-20 17:40,50.9117166666667,-96.9825216666667,3.6,6.6,107,986.77,24.1,63,20.17,0.0,1012.38,360.0
2018-06-20 17:50,50.91172,-96.9825383333333,6.1,7.8,70,986.70,25.9,51,20.23,0.0,1012.18,360.0
2018-06-20 18:00,50.9117216666667,-96.9825366666667,8.1,12.0,83,986.65,26.1,58,20.28,0.0,1012.14,270.0
2018-06-20 18:10,50.91172,-96.9825316666667,9.6,11.8,101,986.68,23.9,76,20.31,0.0,1012.29,270.0
2018-06-20 18:20,50.9117233333333,-96.9825216666667,7.4,9.1,116,986.70,22.9,77,20.34,0.0,1012.36,270.0
2018-06-20 18:30,50.91173,-96.9825183333333,7.0,7.9,123,986.70,22.3,80,20.38,0.0,1012.39,270.0
2018-06-20 18:40,50.91174,-96.9825466666667,7.2,8.5,126,986.71,22.2,80,20.42,0.0,1012.38,270.0
2018-06-20 18:50,50.911705,-96.982485,6.0,7.7,122,986.73,22.3,81,20.46,0.0,1012.34,270.0
2018-06-20 19:00,50.9117333333333,-96.9825166666667,5.7,6.7,118,986.72,22.5,80,20.50,0.0,1012.30,170.2
2018-06-20 19:10,50.9117333333333,-96.9825216666667,5.8,6.9,103,986.72,23.3,78,20.55,0.0,1012.30,170.2
2018-06-20 19:20,50.91173,-96.982525,5.5,6.7,122,986.70,22.8,79,20.60,0.0,1012.32,170.2
2018-06-20 19:30,50.9117283333333,-96.9825316666667,5.2,6.2,137,986.63,22.7,79,20.64,0.0,1012.24,170.2
2018-06-20 19:40,50.9117183333333,-96.9824983333333,4.8,6.1,127,986.59,23.0,74,20.68,0.0,1012.11,170.2
2018-06-20 19:50,50.9117166666667,-96.9825716666667,3.2,5.0,141,986.63,23.3,74,20.70,0.0,1012.12,170.2
2018-06-20 20:00,50.91173,-96.9825366666667,4.3,5.7,157,986.64,23.3,78,20.73,0.0,1012.22,299.5
2018-06-20 20:10,50.9117333333333,-96.9825383333333,4.8,5.9,141,986.63,23.3,76,20.77,0.0,1012.26,299.5
2018-06-20 20:20,50.9117316666667,-96.982535,3.7,5.5,167,986.62,23.6,76,20.81,0.0,1012.27,299.5
2018-06-20 20:30,50.9117516666667,-96.9825283333333,3.7,5.4,145,986.61,23.7,76,20.86,0.0,1012.26,299.5
2018-06-20 20:40,50.91174,-96.9825233333333,6.0,7.1,139,986.53,23.7,76,20.90,0.0,1012.16,299.5
2018-06-20 20:50,50.911735,-96.98254,7.1,7.5,135,986.47,23.6,75,20.94,0.0,1012.11,299.5
2018-06-20 21:00,50.91174,-96.9825266666667,7.1,8.0,137,986.46,23.6,75,20.98,0.0,1012.05,360.0
2018-06-20 21:10,50.91174,-96.9825266666667,6.7,7.7,140,986.40,23.9,73,21.02,0.0,1012.01,360.0
2018-06-20 21:20,50.91174,-96.982525,6.4,7.5,138,986.32,24.2,71,21.06,0.0,1011.92,360.0
2018-06-20 21:30,50.9117583333333,-96.9825666666667,6.5,7.6,132,986.24,24.3,71,21.10,0.0,1011.82,360.0
2018-06-20 21:40,50.91174,-96.982525,7.3,7.7,125,986.17,24.6,64,21.14,0.0,1011.72,360.0
2018-06-20 21:50,50.911735,-96.9825133333333,7.1,7.8,124,986.11,25.1,58,21.17,0.0,1011.64,360.0
2018-06-20 22:00,50.9117333333333,-96.9825133333333,6.5,7.1,127,986.07,25.7,53,21.21,0.0,1011.57,0.0
2018-06-20 22:10,50.9117316666667,-96.9825166666667,6.0,7.1,130,986.01,25.6,59,21.25,0.0,1011.50,0.0
2018-06-20 22:20,50.9117316666667,-96.98252,5.0,6.6,140,985.94,25.3,67,21.28,0.0,1011.44,0.0
2018-06-20 22:30,50.911715,-96.9825233333333,4.1,5.6,163,985.87,25.2,70,21.32,0.0,1011.36,0.0
2018-06-20 22:40,50.9117266666667,-96.9825216666667,4.2,5.4,168,985.79,25.7,63,21.37,0.0,1011.27,0.0
2018-06-20 22:50,50.9117266666667,-96.9825566666667,3.1,4.4,181,985.67,26.0,65,21.41,0.0,1011.13,0.0
2018-06-20 23:00,50.9117266666667,-96.98255,3.7,5.4,190,985.60,26.6,56,21.45,0.0,1011.02,270.0
2018-06-20 23:10,50.9117133333333,-96.9825216666667,3.7,5.1,192,985.60,27.3,45,21.50,0.0,1010.98,270.0
2018-06-20 23:20,50.9117166666667,-96.982525,2.1,4.0,196,985.58,28.1,43,21.53,0.0,1010.92,270.0
2018-06-20 23:30,50.91173,-96.9825433333333,2.5,3.9,187,985.52,28.2,42,21.57,0.0,1010.84,270.0
